Total_Precipitation_Accumulation
0.32 0.27 0.26 0.28 0.29 0.32 0.41 0.50 0.64 0.71 0.69 0.64 0.68 0.73 0.75 0.77 0.75 0.66 0.62 0.55 0.53 0.52 0.52 0.57 0.57 0.58 0.57 0.55 0.62 0.66 0.67 0.69 0.79 0.87 0.93 0.96 1.03 1.05 1.01 0.99 0.95 0.93 0.91 0.92
0.29 0.25 0.23 0.21 0.21 0.26 0.32 0.39 0.48 0.50 0.51 0.44 0.39 0.35 0.34 0.36 0.42 0.42 0.40 0.38 0.43 0.46 0.49 0.57 0.57 0.54 0.56 0.56 0.53 0.53 0.54 0.58 0.71 0.80 0.83 0.90 0.93 0.96 0.98 1.01 0.99 0.96 0.94 0.97
0.33 0.25 0.29 0.33 0.27 0.27 0.31 0.32 0.39 0.46 0.48 0.42 0.34 0.29 0.28 0.26 0.26 0.28 0.30 0.33 0.37 0.41 0.46 0.53 0.52 0.51 0.52 0.54 0.52 0.52 0.54 0.59 0.69 0.73 0.71 0.74 0.79 0.79 0.78 0.88 0.94 0.93 0.93 0.92
0.46 0.40 0.48 0.37 0.26 0.25 0.25 0.28 0.34 0.40 0.37 0.35 0.29 0.29 0.27 0.24 0.24 0.27 0.28 0.29 0.33 0.36 0.40 0.49 0.51 0.52 0.53 0.52 0.51 0.50 0.53 0.55 0.64 0.66 0.65 0.66 0.71 0.69 0.69 0.76 0.84 0.89 0.98 0.98
0.62 0.50 0.33 0.26 0.25 0.28 0.28 0.30 0.33 0.33 0.29 0.26 0.22 0.26 0.26 0.21 0.20 0.22 0.22 0.24 0.29 0.34 0.41 0.49 0.53 0.58 0.60 0.56 0.56 0.60 0.59 0.55 0.54 0.58 0.61 0.64 0.60 0.59 0.59 0.65 0.69 0.72 0.78 0.86
0.71 0.66 0.45 0.30 0.20 0.23 0.29 0.41 0.35 0.32 0.31 0.27 0.26 0.33 0.31 0.23 0.19 0.19 0.20 0.22 0.27 0.33 0.41 0.46 0.53 0.59 0.63 0.65 0.59 0.60 0.63 0.63 0.62 0.62 0.60 0.62 0.59 0.56 0.57 0.64 0.67 0.70 0.72 0.70
0.67 0.67 0.41 0.22 0.16 0.21 0.44 0.52 0.35 0.32 0.33 0.31 0.30 0.30 0.27 0.20 0.18 0.21 0.24 0.26 0.26 0.32 0.42 0.45 0.52 0.57 0.64 0.67 0.58 0.56 0.64 0.73 0.76 0.68 0.65 0.70 0.71 0.67 0.64 0.64 0.68 0.69 0.70 0.70
0.65 0.74 0.54 0.23 0.24 0.39 0.48 0.36 0.29 0.28 0.28 0.28 0.26 0.22 0.20 0.20 0.21 0.24 0.26 0.27 0.28 0.31 0.38 0.42 0.49 0.54 0.57 0.61 0.60 0.60 0.60 0.66 0.69 0.69 0.68 0.71 0.80 0.81 0.79 0.79 0.77 0.78 0.79 0.77
0.66 0.59 0.40 0.28 0.34 0.35 0.34 0.35 0.29 0.26 0.24 0.23 0.23 0.22 0.20 0.20 0.21 0.24 0.25 0.28 0.31 0.35 0.40 0.43 0.49 0.50 0.53 0.58 0.64 0.61 0.59 0.61 0.64 0.67 0.69 0.68 0.73 0.81 0.87 0.86 0.83 0.83 0.83 0.83
0.61 0.43 0.34 0.33 0.30 0.30 0.29 0.28 0.26 0.25 0.23 0.23 0.23 0.24 0.22 0.20 0.19 0.21 0.23 0.26 0.32 0.39 0.45 0.47 0.51 0.56 0.63 0.64 0.63 0.64 0.64 0.64 0.62 0.63 0.64 0.65 0.68 0.72 0.76 0.80 0.77 0.77 0.78 0.80
0.61 0.46 0.41 0.37 0.33 0.31 0.29 0.24 0.22 0.21 0.19 0.22 0.24 0.24 0.24 0.22 0.20 0.19 0.21 0.23 0.28 0.37 0.47 0.51 0.54 0.59 0.65 0.63 0.63 0.67 0.71 0.69 0.65 0.63 0.63 0.64 0.62 0.64 0.67 0.69 0.78 0.86 0.88 0.91
0.72 0.50 0.50 0.42 0.31 0.28 0.29 0.27 0.24 0.22 0.18 0.17 0.19 0.21 0.23 0.22 0.21 0.19 0.18 0.21 0.26 0.30 0.37 0.44 0.48 0.51 0.55 0.58 0.59 0.65 0.71 0.69 0.65 0.68 0.67 0.66 0.66 0.69 0.76 0.77 0.85 0.83 0.85 0.87
0.62 0.47 0.39 0.33 0.29 0.31 0.32 0.29 0.25 0.22 0.19 0.17 0.18 0.18 0.24 0.23 0.21 0.21 0.22 0.23 0.27 0.29 0.30 0.37 0.41 0.43 0.47 0.54 0.59 0.63 0.68 0.66 0.64 0.66 0.68 0.69 0.72 0.73 0.74 0.74 0.75 0.74 0.71 0.72
0.40 0.42 0.39 0.33 0.34 0.33 0.31 0.28 0.23 0.19 0.17 0.18 0.19 0.19 0.22 0.24 0.24 0.24 0.25 0.26 0.28 0.30 0.29 0.31 0.34 0.39 0.44 0.48 0.52 0.62 0.71 0.78 0.74 0.69 0.71 0.76 0.77 0.75 0.72 0.75 0.77 0.74 0.71 0.70
0.29 0.34 0.37 0.33 0.31 0.28 0.27 0.25 0.22 0.18 0.17 0.18 0.20 0.22 0.26 0.29 0.30 0.29 0.27 0.28 0.29 0.29 0.29 0.29 0.31 0.35 0.39 0.44 0.48 0.53 0.62 0.70 0.73 0.75 0.76 0.77 0.75 0.71 0.69 0.70 0.71 0.74 0.73 0.75
0.27 0.26 0.28 0.33 0.31 0.26 0.26 0.27 0.28 0.24 0.20 0.21 0.24 0.27 0.31 0.33 0.33 0.33 0.31 0.33 0.33 0.32 0.31 0.32 0.33 0.35 0.37 0.43 0.50 0.52 0.56 0.68 0.74 0.72 0.74 0.76 0.74 0.74 0.75 0.73 0.73 0.73 0.70 0.75
0.34 0.32 0.33 0.38 0.35 0.31 0.31 0.34 0.36 0.32 0.27 0.26 0.29 0.30 0.33 0.39 0.40 0.37 0.36 0.36 0.35 0.35 0.34 0.34 0.37 0.40 0.43 0.48 0.56 0.58 0.57 0.61 0.71 0.69 0.67 0.73 0.80 0.81 0.84 0.84 0.80 0.79 0.80 0.88
0.37 0.36 0.38 0.42 0.43 0.46 0.48 0.46 0.44 0.38 0.33 0.32 0.32 0.35 0.38 0.40 0.45 0.44 0.42 0.39 0.38 0.37 0.39 0.38 0.39 0.43 0.44 0.49 0.56 0.61 0.64 0.60 0.60 0.63 0.67 0.70 0.77 0.79 0.83 0.85 0.84 0.84 0.87 0.90
0.29 0.31 0.35 0.38 0.44 0.52 0.52 0.51 0.49 0.41 0.35 0.36 0.38 0.40 0.43 0.42 0.45 0.43 0.41 0.42 0.43 0.43 0.42 0.40 0.47 0.44 0.45 0.52 0.59 0.59 0.65 0.67 0.66 0.66 0.67 0.73 0.75 0.75 0.81 0.84 0.87 0.90 0.91 0.88
0.28 0.31 0.37 0.41 0.43 0.46 0.50 0.51 0.46 0.42 0.36 0.38 0.41 0.41 0.46 0.49 0.44 0.43 0.42 0.41 0.41 0.42 0.42 0.46 0.44 0.43 0.48 0.53 0.59 0.53 0.61 0.67 0.66 0.65 0.66 0.69 0.70 0.73 0.77 0.79 0.82 0.88 0.92 0.92
0.35 0.37 0.40 0.44 0.45 0.44 0.52 0.56 0.51 0.46 0.42 0.42 0.43 0.44 0.45 0.51 0.48 0.49 0.50 0.45 0.40 0.38 0.40 0.52 0.47 0.47 0.56 0.65 0.63 0.55 0.58 0.64 0.66 0.67 0.68 0.69 0.71 0.75 0.76 0.79 0.80 0.83 0.85 0.87
0.41 0.43 0.45 0.48 0.49 0.49 0.53 0.61 0.60 0.54 0.48 0.48 0.46 0.48 0.49 0.51 0.52 0.51 0.51 0.52 0.50 0.54 0.50 0.47 0.48 0.61 0.78 0.77 0.59 0.57 0.58 0.59 0.64 0.68 0.69 0.70 0.73 0.78 0.81 0.81 0.81 0.80 0.82 0.87
0.46 0.49 0.50 0.51 0.55 0.55 0.53 0.59 0.61 0.55 0.54 0.56 0.57 0.58 0.58 0.58 0.61 0.62 0.60 0.56 0.56 0.65 0.59 0.55 0.64 0.82 0.90 0.71 0.62 0.62 0.60 0.60 0.61 0.63 0.65 0.68 0.73 0.78 0.80 0.78 0.80 0.82 0.84 0.87
0.49 0.52 0.52 0.52 0.55 0.56 0.60 0.63 0.62 0.62 0.63 0.64 0.65 0.65 0.67 0.69 0.70 0.68 0.68 0.74 0.77 0.77 0.66 0.68 0.78 0.87 0.86 0.68 0.65 0.64 0.62 0.61 0.63 0.65 0.65 0.67 0.71 0.75 0.76 0.75 0.75 0.77 0.79 0.86
0.55 0.55 0.55 0.57 0.61 0.66 0.71 0.71 0.69 0.70 0.71 0.70 0.69 0.68 0.70 0.77 0.85 0.83 0.77 0.76 0.84 0.84 0.72 0.76 0.85 0.83 0.69 0.66 0.68 0.68 0.69 0.71 0.77 0.78 0.74 0.74 0.74 0.73 0.73 0.74 0.75 0.77 0.77 0.84
0.57 0.60 0.64 0.66 0.70 0.73 0.76 0.77 0.82 0.82 0.83 0.83 0.79 0.76 0.76 0.79 0.84 0.87 0.88 0.87 0.90 0.94 0.87 0.84 0.84 0.82 0.74 0.74 0.77 0.76 0.74 0.79 0.85 0.85 0.83 0.85 0.82 0.81 0.82 0.82 0.82 0.83 0.86 0.90
0.54 0.58 0.59 0.62 0.64 0.67 0.72 0.78 0.89 0.93 0.93 0.97 0.94 0.87 0.88 0.92 0.93 0.92 0.93 0.98 1.02 1.02 1.01 0.99 0.95 0.94 0.92 0.90 0.89 0.89 0.86 0.84 0.84 0.85 0.89 0.92 0.94 0.94 0.93 0.93 0.96 0.96 0.97 0.98